When you browse on this site, cookies collect data to enhance your experience and personalize the content and advertising you see.
Visit our Privacy Policy to learn more. By continuing to use the site, you agree to this use of cookies and data.
  • In France
  • List of Countries
  • For 7 days
  • Water Temperature
  • Satellite Maps
  • Weather Map
  • Weather Widgets
  • user-avatar
    Login

    Hourly Weather Kranevo

    Today, 25 May, Saturday

    Time Temperature Precipitation Wind Pressure Humidity
    00:00 +14°C° 0 mm 4 mps 751 mmHg 91%
    01:00 +14°C° 0 mm 5 mps 751 mmHg 90%
    02:00 +13°C° 0 mm 5 mps 751 mmHg 90%
    03:00 +13°C° 0 mm 5 mps 751 mmHg 91%
    04:00 +11°C° 0 mm 6 mps 752 mmHg 91%
    05:00 +11°C° 0 mm 6 mps 752 mmHg 91%
    06:00 +14°C° 0 mm 6 mps 752 mmHg 88%
    07:00 +15°C° 0 mm 6 mps 752 mmHg 85%
    08:00 +16°C° 0 mm 6 mps 753 mmHg 79%
    09:00 +19°C° 0.2 mm 5 mps 753 mmHg 76%
    10:00 +20°C° 0.2 mm 5 mps 753 mmHg 73%
    11:00 +21°C° 0.2 mm 4 mps 753 mmHg 69%
    12:00 +22°C° 1.6 mm 4 mps 753 mmHg 70%
    13:00 +22°C° 1.6 mm 4 mps 753 mmHg 71%
    14:00 +22°C° 1.6 mm 4 mps 753 mmHg 72%
    15:00 +22°C° 1.4 mm 3 mps 753 mmHg 74%
    16:00 +21°C° 1.4 mm 3 mps 753 mmHg 76%
    17:00 +21°C° 1.4 mm 3 mps 753 mmHg 78%
    18:00 +20°C° 0.3 mm 3 mps 753 mmHg 81%
    19:00 +19°C° 0.3 mm 3 mps 753 mmHg 84%
    20:00 +18°C° 0.3 mm 3 mps 753 mmHg 87%
    21:00 +18°C° 0.1 mm 3 mps 753 mmHg 88%
    22:00 +17°C° 0.1 mm 3 mps 754 mmHg 89%
    23:00 +15°C° 0.1 mm 4 mps 754 mmHg 90%

    Tomorrow, 26 May, Sunday

    Time Temperature Precipitation Wind Pressure Humidity
    00:00 +15°C° 0 mm 4 mps 754 mmHg 90%
    01:00 +15°C° 0 mm 4 mps 754 mmHg 90%
    02:00 +15°C° 0 mm 4 mps 755 mmHg 90%
    03:00 +15°C° 0 mm 4 mps 755 mmHg 90%
    04:00 +15°C° 0 mm 4 mps 755 mmHg 91%
    05:00 +14°C° 0 mm 4 mps 755 mmHg 91%
    06:00 +17°C° 0 mm 4 mps 755 mmHg 88%
    07:00 +19°C° 0 mm 3 mps 756 mmHg 84%
    08:00 +20°C° 0 mm 3 mps 756 mmHg 81%
    09:00 +21°C° 0.1 mm 2 mps 756 mmHg 76%
    10:00 +24°C° 0.1 mm 1 mps 756 mmHg 71%
    11:00 +25°C° 0.1 mm 1 mps 757 mmHg 66%
    12:00 +25°C° 0.4 mm 1 mps 757 mmHg 66%
    13:00 +25°C° 0.4 mm 2 mps 757 mmHg 66%
    14:00 +25°C° 0.4 mm 2 mps 757 mmHg 66%
    15:00 +25°C° 0.2 mm 3 mps 756 mmHg 68%
    16:00 +25°C° 0.2 mm 3 mps 756 mmHg 71%
    17:00 +24°C° 0.2 mm 3 mps 756 mmHg 73%
    18:00 +22°C° 0 mm 3 mps 756 mmHg 78%
    19:00 +20°C° 0 mm 2 mps 756 mmHg 83%
    20:00 +18°C° 0 mm 2 mps 756 mmHg 88%
    21:00 +18°C° 0 mm 2 mps 757 mmHg 86%
    22:00 +18°C° 0 mm 2 mps 757 mmHg 84%
    23:00 +18°C° 0 mm 2 mps 757 mmHg 83%

    Day after tomorrow, 27 May, Monday

    Time Temperature Precipitation Wind Pressure Humidity
    00:00 +17°C° 0 mm 2 mps 757 mmHg 83%
    01:00 +18°C° 0 mm 1 mps 757 mmHg 83%
    02:00 +18°C° 0 mm 1 mps 757 mmHg 83%
    03:00 +18°C° 0 mm 1 mps 757 mmHg 84%
    04:00 +18°C° 0 mm 1 mps 757 mmHg 84%
    05:00 +18°C° 0 mm 1 mps 757 mmHg 85%
    06:00 +20°C° 0 mm 1 mps 757 mmHg 81%
    07:00 +20°C° 0 mm 2 mps 757 mmHg 77%
    08:00 +23°C° 0 mm 2 mps 758 mmHg 74%
    09:00 +23°C° 0 mm 2 mps 758 mmHg 71%
    10:00 +24°C° 0 mm 3 mps 758 mmHg 67%
    11:00 +25°C° 0 mm 4 mps 758 mmHg 64%
    12:00 +25°C° 0 mm 4 mps 758 mmHg 64%
    13:00 +25°C° 0 mm 4 mps 757 mmHg 63%
    14:00 +25°C° 0 mm 4 mps 757 mmHg 63%
    15:00 +23°C° 0 mm 4 mps 757 mmHg 65%
    16:00 +22°C° 0 mm 4 mps 757 mmHg 68%
    17:00 +22°C° 0 mm 3 mps 757 mmHg 71%
    18:00 +20°C° 0 mm 3 mps 757 mmHg 77%
    19:00 +19°C° 0 mm 3 mps 757 mmHg 83%
    20:00 +17°C° 0 mm 3 mps 757 mmHg 89%
    21:00 +17°C° 0 mm 2 mps 757 mmHg 90%
    22:00 +16°C° 0 mm 2 mps 757 mmHg 90%
    23:00 +16°C° 0 mm 2 mps 757 mmHg 91%

    28 May, Tuesday

    Time Temperature Precipitation Wind Pressure Humidity
    00:00 +16°C° 0 mm 2 mps 756 mmHg 91%
    01:00 +16°C° 0 mm 2 mps 756 mmHg 92%
    02:00 +16°C° 0 mm 2 mps 756 mmHg 92%
    03:00 +16°C° 0 mm 2 mps 756 mmHg 91%
    04:00 +16°C° 0 mm 2 mps 755 mmHg 91%
    05:00 +15°C° 0 mm 2 mps 755 mmHg 91%
    06:00 +17°C° 0 mm 3 mps 755 mmHg 86%
    07:00 +18°C° 0 mm 3 mps 755 mmHg 82%
    08:00 +20°C° 0 mm 3 mps 755 mmHg 78%
    09:00 +21°C° 0 mm 3 mps 754 mmHg 74%
    10:00 +22°C° 0 mm 3 mps 754 mmHg 71%
    11:00 +24°C° 0 mm 3 mps 754 mmHg 67%
    12:00 +25°C° 0 mm 3 mps 753 mmHg 66%
    13:00 +25°C° 0 mm 3 mps 753 mmHg 65%
    14:00 +25°C° 0 mm 3 mps 752 mmHg 64%
    15:00 +25°C° 0 mm 3 mps 752 mmHg 66%
    16:00 +24°C° 0 mm 3 mps 752 mmHg 69%
    17:00 +24°C° 0 mm 3 mps 751 mmHg 71%
    18:00 +21°C° 0 mm 3 mps 751 mmHg 77%
    19:00 +20°C° 0 mm 3 mps 751 mmHg 82%
    20:00 +18°C° 0 mm 3 mps 751 mmHg 87%
    21:00 +18°C° 0 mm 3 mps 751 mmHg 87%
    22:00 +18°C° 0 mm 3 mps 751 mmHg 87%
    23:00 +18°C° 0 mm 3 mps 751 mmHg 87%

    29 May, Wednesday

    Time Temperature Precipitation Wind Pressure Humidity
    00:00 +18°C° 0 mm 3 mps 751 mmHg 86%
    01:00 +18°C° 0 mm 3 mps 751 mmHg 84%
    02:00 +17°C° 0 mm 3 mps 751 mmHg 82%
    03:00 +17°C° 0 mm 3 mps 751 mmHg 82%
    04:00 +16°C° 0 mm 3 mps 751 mmHg 81%
    05:00 +16°C° 0 mm 3 mps 751 mmHg 81%
    06:00 +18°C° 0 mm 3 mps 751 mmHg 77%
    07:00 +20°C° 0 mm 3 mps 752 mmHg 72%
    08:00 +22°C° 0 mm 3 mps 752 mmHg 68%
    09:00 +25°C° 0 mm 3 mps 752 mmHg 64%
    10:00 +26°C° 0 mm 3 mps 752 mmHg 60%
    11:00 +28°C° 0 mm 3 mps 752 mmHg 57%
    12:00 +28°C° 0 mm 4 mps 752 mmHg 56%
    13:00 +28°C° 0 mm 4 mps 752 mmHg 55%
    14:00 +29°C° 0 mm 5 mps 752 mmHg 55%
    15:00 +28°C° 0 mm 5 mps 752 mmHg 58%
    16:00 +27°C° 0 mm 5 mps 752 mmHg 61%
    17:00 +27°C° 0 mm 5 mps 752 mmHg 65%
    18:00 +25°C° 0 mm 4 mps 752 mmHg 69%
    19:00 +24°C° 0 mm 3 mps 752 mmHg 73%
    20:00 +21°C° 0 mm 2 mps 753 mmHg 77%
    21:00 +21°C° 0 mm 2 mps 753 mmHg 78%
    22:00 +21°C° 0 mm 2 mps 753 mmHg 78%
    23:00 +21°C° 0 mm 2 mps 753 mmHg 78%

    30 May, Thursday

    Time Temperature Precipitation Wind Pressure Humidity
    00:00 +20°C° 0 mm 2 mps 754 mmHg 79%
    01:00 +20°C° 0 mm 2 mps 754 mmHg 80%
    02:00 +21°C° 0 mm 1 mps 754 mmHg 80%
    03:00 +21°C° 0 mm 1 mps 754 mmHg 81%
    04:00 +21°C° 0 mm 1 mps 754 mmHg 81%
    05:00 +21°C° 0 mm 1 mps 754 mmHg 81%
    06:00 +21°C° 0 mm 2 mps 755 mmHg 77%
    07:00 +23°C° 0 mm 2 mps 755 mmHg 74%
    08:00 +25°C° 0 mm 2 mps 755 mmHg 70%
    09:00 +26°C° 0.3 mm 2 mps 755 mmHg 67%
    10:00 +27°C° 0.3 mm 2 mps 755 mmHg 64%
    11:00 +28°C° 0.3 mm 2 mps 755 mmHg 62%
    12:00 +28°C° 0.6 mm 2 mps 755 mmHg 60%
    13:00 +28°C° 0.6 mm 2 mps 755 mmHg 59%
    14:00 +28°C° 0.6 mm 2 mps 755 mmHg 58%
    15:00 +28°C° 0.4 mm 2 mps 755 mmHg 62%
    16:00 +27°C° 0.4 mm 2 mps 755 mmHg 65%
    17:00 +26°C° 0.4 mm 2 mps 755 mmHg 68%
    18:00 +25°C° 0.2 mm 2 mps 755 mmHg 73%
    19:00 +23°C° 0.2 mm 1 mps 755 mmHg 77%
    20:00 +20°C° 0.2 mm 0 mps 755 mmHg 81%
    21:00 +20°C° 0.1 mm 0 mps 755 mmHg 81%
    22:00 +19°C° 0.1 mm 0 mps 755 mmHg 82%
    23:00 +19°C° 0.1 mm 0 mps 755 mmHg 82%
    Show more